Hourly Data Report for October 18, 2012

All times are specified in Local Standard Time (LST). Add 1 hour to adjust for Daylight Saving Time where and when it is observed.

KITCHENER/WATERLOO
ONTARIO

43°27'39.000" N
80°22'43.000" W
321.60 m
6144239
71368
YKF

Download Data

Hourly Data (October 2012)
Hourly Data Report for October 18, 2012
Temp Definition
°C
Dew Point Temp Definition
°C
Rel Hum Definition
%
Wind Dir Definition
10's deg

Wind Spd Definition
km/h
Visibility Definition
km
Stn Press Definition
kPa
Hmdx Definition


Wind Chill Definition


Weather Definition


TIME
00:00 Legend Double Dagger 11.3 8.2 81 12 11 16.1 96.83     LegendNANA
01:00 Legend Double Dagger 11.6 7.3 75 12 13 16.1 96.78     LegendNANA
02:00 Legend Double Dagger 12.0 7.2 72 14 15 16.1 96.77     LegendNANA
03:00 Legend Double Dagger 10.7 6.6 76 13 13 16.1 96.71     LegendNANA
04:00 Legend Double Dagger 11.2 6.9 75 12 13 16.1 96.70     LegendNANA
05:00 Legend Double Dagger 10.3 6.8 79 12 15 16.1 96.64     LegendNANA
06:00 Legend Double Dagger 9.7 6.8 82 12 17 16.1 96.58     LegendNANA
07:00 Legend Double Dagger 9.7 6.8 82 11 17 16.1 96.55     LegendNANA
08:00 Legend Double Dagger 11.2 7.4 77 12 21 16.1 96.57     LegendNANA
09:00 Legend Double Dagger 13.7 8.7 72 13 24 16.1 96.51     LegendNANA
10:00 Legend Double Dagger 15.5 8.5 63 15 32 16.1 96.45     LegendNANA
11:00 Legend Double Dagger 16.0 7.7 57 17 41 16.1 96.48     LegendNANA
12:00 Legend Double Dagger 15.2 8.7 65 16 28 16.1 96.45     LegendNANA
13:00 Legend Double Dagger 17.6 8.1 53 16 42 16.1 96.41     LegendNANA
14:00 Legend Double Dagger 11.0 8.2 83 20 30 11.3 96.65     LegendNANA
15:00 Legend Double Dagger 10.8 8.4 85 20 22 16.1 96.77     LegendNANA
16:00 Legend Double Dagger 10.9 8.2 83 18 15 16.1 96.79     LegendNANA
17:00 Legend Double Dagger 10.5 8.3 86 15 9 16.1 96.78     LegendNANA
18:00 Legend Double Dagger 10.4 8.5 88 17 18 16.1 96.92     LegendNANA
19:00 Legend Double Dagger 10.3 8.7 90 17 13 16.1 96.94     LegendNANA
20:00 Legend Double Dagger 9.6 8.4 92 14 11 16.1 97.03     LegendNANA
21:00 Legend Double Dagger 10.2 9.1 93 13 11 16.1 97.05     LegendNANA
22:00 Legend Double Dagger 8.9 7.9 94 11 13 16.1 97.03     LegendNANA
23:00 Legend Double Dagger 6.9 6.5 97 10 8 16.1 97.06     LegendNANA

Notes on Data Quality.

Legend

  • E = Estimated
  • M = Missing
  • NA = Not Available
  • ‡ = Partner data that is not subject to review by the National Climate Archives
Date modified: